This is the latest recevied weather packets stored in our database for station/object N2PUI. If no packets are shown the sender has not sent any weather packets the latest 10 day(s).
| Time | Temp. | Humidity | Pressure | Rain* | Wind** | Luminosity | Snow |
|---|---|---|---|---|---|---|---|
| 1777580769 | 10.56° C | 62% | 1009.5 hPa | 0 mm | - | 159 W/m² | - |
| 1777580465 | 10.56° C | 61% | 1009.5 hPa | 0 mm | - | 182 W/m² | - |
| 1777580160 | 10.56° C | 63% | 1009.5 hPa | 0 mm | - | 189 W/m² | - |
| 1777579858 | 10.56° C | 63% | 1009.6 hPa | 0 mm | - | 169 W/m² | - |
| 1777579557 | 10° C | 63% | 1009.4 hPa | 0 mm | - | 164 W/m² | - |
| 1777579255 | 10.56° C | 64% | 1009.2 hPa | 0 mm | - | 177 W/m² | - |
| 1777578952 | 10.56° C | 64% | 1009.5 hPa | 0 mm | - | 188 W/m² | - |
| 1777578647 | 10.56° C | 63% | 1009.3 hPa | 0 mm | - | 182 W/m² | - |
| 1777578341 | 10.56° C | 64% | 1009.3 hPa | 0 mm | - | 194 W/m² | - |
| 1777578037 | 11.11° C | 63% | 1009.3 hPa | 0 mm | - | 253 W/m² | - |
| 1777577732 | 11.11° C | 65% | 1009.3 hPa | 0 mm | - | 308 W/m² | - |
| 1777577429 | 11.11° C | 65% | 1009.3 hPa | 0 mm | - | 245 W/m² | - |
| 1777577127 | 11.11° C | 64% | 1009.2 hPa | 0 mm | - | 274 W/m² | - |
| 1777576822 | 11.67° C | 63% | 1009.2 hPa | 0 mm | - | 286 W/m² | - |
| 1777576522 | 11.67° C | 64% | 1008.9 hPa | 0 mm | - | 310 W/m² | - |
| 1777576218 | 11.11° C | 65% | 1009.1 hPa | 0 mm | - | 309 W/m² | - |
| 1777575914 | 11.67° C | 65% | 1009 hPa | 0 mm | - | 314 W/m² | - |
| 1777575610 | 11.11° C | 65% | 1009.2 hPa | 0 mm | - | 990 W/m² | - |
| 1777575307 | 11.11° C | 65% | 1009.2 hPa | 0 mm | - | 345 W/m² | - |
| 1777575003 | 11.11° C | 65% | 1009.1 hPa | 0 mm | - | 259 W/m² | - |
| 1777574699 | 11.67° C | 63% | 1009.4 hPa | 0 mm | - | 356 W/m² | - |
| 1777574396 | 11.67° C | 63% | 1009.3 hPa | 0 mm | - | 825 W/m² | - |
| 1777574091 | 11.11° C | 67% | 1009.3 hPa | 0 mm | - | 554 W/m² | - |
| 1777573781 | 11.11° C | 67% | 1009.5 hPa | 0 mm | - | 1022 W/m² | - |
| 1777573477 | 11.11° C | 65% | 1009.4 hPa | 0 mm | - | 492 W/m² | - |
* Rain latest hour (hover to see other rain measurements)
** Current wind speed in m/s (hover to see current wind gust speed)